STARLINK-35082, 65392

Orbit data source: Space-Track

STARLINK-35082, 65392 is a payload satellite owned by SpaceX/Seattle (US) in SSO that was launched on Sat, 30 Aug 2025 UTC via an FALCON 9 launch vehicle from the Air Force Western Test Range (AFWTR). Payload-class satellites include a variety of spacecraft equipped with specific instruments for various scientific and technological missions. These include communications satellites like Starlink; space stations such as the ISS; scientific satellites like the Hubble; Earth observation satellites from companies like Planet Labs, Umbra, and HawkEye 360; GPS; miniature CubeSats for education and research; and military/defense satellites.

Loading next visibility...
Identifier
65392, 2025-191P
Orbit
SSO
Country
Flag of USUS
Related business
Manufacturer
SpaceX/Seattle
Mission
Operational Commercial Communications
Bus & Motor
STARLINK V2MO, Unknown motor
Mass
575 kg wet, ~530 kg dry
Launch date (UTC)
2025-08-30 (7 months ago)
Launch vehicle
FALCON 9
Launch site
Air Force Western Test Range (AFWTR)
Object type
Payload
Rocket body
Debris
Shape & HBR
Box + 2 Pan, 17.7 m
Radar Cross Section
36.964 m², Large (>1 m²)

Expand to show TLE details & history
Last TLE update: 17 hours ago

TLE from 17 hours ago
0 STARLINK-35082
1 65392U 25191P   26093.60600462  .00005351  00000-0  37469-3 0  9993
2 65392  97.6031 326.1612 0002273  87.1730 272.9757 15.05657202 34025
Epoch: 2026-04-03T14:32Z
TLE epoch observation values (Epoch: 2026-04-03T14:32:38.799Z)
Latitude
0.00001°
Longitude
-83.93819°
Altitude
552.473 km
Speed
7.586 km/s
True Right ascension
21h 44m 38s
True Declination
0° 00' 00"
Sunlit
Object was in daylight at epoch
Visualization orbit readout
Latitude
Unknown
Longitude
Unknown
Altitude
Unknown
Speed
Unknown
Apparent Right ascension
Unknown
Apparent Declination
Unknown
Sunlit
N/A
Visualization observer readout
Local Sidereal Time
13:20:54
Azimuth
Unknown
Elevation
Unknown
Doppler factor
Unknown
Orbital elements
Apogee altitude
548.057 km
Perigee altitude
544.909 km
Semi-major axis
6,924.62 km
Eccentricity
0.00023
Inclination
97.6031°
RAAN
326.1612°
Arg. of periapsis
87.173°
True anomaly
272.94969°
Mean anomaly
272.9757°
Eccentric anomaly
272.96269°
Mean motion
3.7666 °/min
Orbital period
95.58 mins
BSTAR
0.00037469
Loading maneuver chart data...
Computing Atmospheric mass density...
Loading historical data...
Loading historical data...
Loading historical data...
Loading historical data...
Loading historical data...
Loading historical data...
Loading historical data...

Documentation

Showing up to 5 results
|